Regional Weather Roundup
Issued by NWS

Home | Current Version | Previous Version | Graphics & Text | Print | Product List | Glossary Off
Versions: 1 2 3 4 5 6 7 8 9 10 11 12 13 14 15 16 17 18 19 20 21 22 23 24 25 26 27 28 29 30 31 32 33 34 35 36 37 38 39 40 41 42 43 44 45 46 47 48 49 50

000
ASUS43 KDMX 200707
RWRIA

WEATHER ROUNDUP FOR IOWA
NATIONAL WEATHER SERVICE DES MOINES IA
200 AM CDT WED AUG 20 2014

NOTE: "FAIR" INDICATES FEW OR NO CLOUDS BELOW 12,000 FEET WITH NO
SIGNIFICANT WEATHER AND/OR OBSTRUCTIONS TO VISIBILITY.

* - THESE STATIONS ARE NOT NWS STATIONS...THUS NOT UNDER NWS
QUALITY CONTROL.  THEY ALSO DO NOT REPORT WEATHER SUCH
AS PRECIPITATION OR FOG.

IAZ001>003-012>014-020>022-031>034-043>046-200800-
   NORTHWEST IOWA

CITY           SKY/WX    TMP DP  RH WIND       PRES   REMARKS
CARROLL *      PTCLDY    63  63 100 CALM      29.84S
CHEROKEE *     PTCLDY    63  63 100 CALM      29.83S
DENISON *      CLEAR     68  66  94 CALM      29.81F FOG
LE MARS *      CLEAR     64  63  94 CALM      29.81F
ORANGE CITY *  CLEAR     70  61  73 CALM      29.82S
SHELDON *      CLEAR     61  61 100 E5        29.81F
SIOUX CITY     PTCLDY    69  66  90 E5        29.80F
SPENCER        CLEAR     63  61  93 E3        29.83F FOG
STORM LAKE *   CLEAR     64  64 100 SE6       29.84F
$$

IAZ055>058-069>071-079>083-090>094-200800-
   SOUTHWEST IOWA

CITY           SKY/WX    TMP DP  RH WIND       PRES   REMARKS
ATLANTIC *     MOCLDY    68  66  94 N3        29.82F
AUDUBON *      CLEAR     66  64  94 CALM      29.85S
CLARINDA *     MOCLDY    72  70  94 CALM      29.83F
COUNCIL BLFS * PTCLDY    72  70  94 SE7       29.81S
CRESTON *      MOCLDY    68  66  94 SE6       29.85S
HARLAN  *      MOCLDY    68  68 100 CALM      29.86S
LAMONI         PTCLDY    73  67  81 SE5       29.85R
RED OAK *      CLOUDY    73  68  83 SE3       29.82F
SHENANDOAH *   PTCLDY    72  70  94 E5        29.82S
$$

IAZ047>049-059>061-072>074-084-200800-
   CENTRAL IOWA

CITY           SKY/WX    TMP DP  RH WIND       PRES   REMARKS
AMES           CLEAR     64  63  96 CALM      29.82F
ANKENY *       CLEAR     64  63  94 CALM      29.83R
CHARITON *     CLOUDY    70  66  88 S6        29.85R
DES MOINES     PTCLDY    71  66  84 S3        29.83R
GRINNELL*      CLEAR     66  63  88 N5        29.84F
KNOXVILLE *    PTCLDY    68  64  88 S6        29.83R
MARSHALLTOWN   CLEAR     64  61  90 SE3       29.83S
PELLA *        CLEAR     66  64  94 S6        29.85R
PERRY *          N/A     64  64 100 S3        29.84R
$$

IAZ004>006-015-016-023>025-035-036-200800-
   NORTH CENTRAL IOWA

CITY           SKY/WX    TMP DP  RH WIND       PRES   REMARKS
ALGONA *       CLEAR     64  63  94 W3        29.84S
CLARION *      CLEAR     63  63 100 CALM      29.84R
ESTHERVILLE    PTCLDY    64  63  96 W5        29.84S
FORT DODGE *   CLEAR     63  61  94 CALM      29.84R
MASON CITY     CLEAR     65  63  93 W7        29.84S
FOREST CITY *  CLEAR     61  61 100 CALM      29.83S FOG
IOWA FALLS *     N/A     64  61  88 SW3       29.85R
$$

IAZ007>011-017>019-026>030-037>042-050>054-066-200800-
   NORTHEAST IOWA

CITY           SKY/WX    TMP DP  RH WIND       PRES   REMARKS
CEDAR RAPIDS   CLEAR     62  61  96 SW3       29.83S
CHARLES CITY * CLEAR     66  64  94 W5        29.83S
CLINTON *      CLEAR     63  61  94 SW5       29.85R
DECORAH *      MOCLDY    64  63  94 CALM      29.81S
DUBUQUE        PTCLDY    64  62  93 CALM      29.83S
MONTICELLO *   CLEAR     61  61 100 CALM      29.82S
OELWEIN *      CLEAR     64  64 100 SW6       29.83S
WATERLOO       CLEAR     66  63  90 CALM      29.81S
$$

IAZ064-065-067-068-078-200800-
   EAST CENTRAL IOWA

CITY           SKY/WX    TMP DP  RH WIND       PRES   REMARKS
DAVENPORT      CLEAR     63  60  90 W3        29.84R
IOWA CITY      CLEAR     66  65  96 CALM      29.84S
MT. PLEASANT * CLEAR     63  63 100 CALM      29.84S
MUSCATINE *    CLEAR     64  63  94 CALM      29.83S FOG
QUAD CITIES    CLEAR     66  62  87 W3        29.83R
$$

IAZ062-063-075>077-085>089-095>099-200800-
   SOUTHEAST IOWA

CITY           SKY/WX    TMP DP  RH WIND       PRES   REMARKS
BURLINGTON     CLEAR     66  65  96 CALM      29.83F
FAIRFIELD *    CLEAR     64  63  94 CALM      29.84R
FORT MADISON *   N/A     68  68 100 CALM      29.84S FOG
KEOKUK *       CLEAR     68  68 100 CALM      29.82F
OSKALOOSA *      N/A     64  63  94 S5        29.85R
CENTERVILLE *  PTCLDY    68  68 100 CALM      29.86S
OTTUMWA        CLEAR     65  63  93 S5        29.84R
WASHINGTON *   CLEAR     64  64 100 CALM      29.83S FOG
$$

ABBREVIATIONS USED IN REMARKS
   TC - TEMPERATURES IN CELSIUS
  WCI - WIND CHILL INDEX
   HX - HEAT INDEX
  VSB - VISIBILITY
$$




USA.gov is the U.S. government's official web portal to all federal, state and local government web resources and services.